When you browse on this site, cookies collect data to enhance your experience and personalize the content and advertising you see.
Visit our Privacy Policy to learn more. By continuing to use the site, you agree to this use of cookies and data.
  • în România
  • Lista ţărilor
  • Pe 7 zile
  • Temperatura apei
  • Hartă satelitară
  • Meteo pe hartă
  • Widget-uri
  • user-avatar
    Intrare

    Meteo pe oră la Samsonovo

    Astăzi, 21 Iulie, Duminică

    Timp Temperatura Precipitaţii Vânt Presiune Umiditate
    00:00 +14°C° 0 mm 1 m/s 752 mmHg 97%
    01:00 +14°C° 0 mm 1 m/s 752 mmHg 97%
    02:00 +13°C° 0 mm 1 m/s 753 mmHg 98%
    03:00 +14°C° 0 mm 1 m/s 753 mmHg 98%
    04:00 +14°C° 0 mm 1 m/s 753 mmHg 98%
    05:00 +14°C° 0 mm 1 m/s 753 mmHg 98%
    06:00 +16°C° 0 mm 1 m/s 753 mmHg 93%
    07:00 +18°C° 0 mm 1 m/s 753 mmHg 88%
    08:00 +20°C° 0 mm 1 m/s 753 mmHg 82%
    09:00 +22°C° 0 mm 1 m/s 753 mmHg 75%
    10:00 +23°C° 0 mm 1 m/s 753 mmHg 67%
    11:00 +25°C° 0 mm 1 m/s 754 mmHg 59%
    12:00 +25°C° 0.2 mm 1 m/s 753 mmHg 58%
    13:00 +25°C° 0.2 mm 1 m/s 753 mmHg 56%
    14:00 +26°C° 0.2 mm 1 m/s 753 mmHg 55%
    15:00 +25°C° 0.5 mm 1 m/s 753 mmHg 63%
    16:00 +24°C° 0.5 mm 1 m/s 753 mmHg 71%
    17:00 +23°C° 0.5 mm 2 m/s 753 mmHg 80%
    18:00 +22°C° 0.2 mm 1 m/s 752 mmHg 83%
    19:00 +20°C° 0.2 mm 1 m/s 752 mmHg 86%
    20:00 +17°C° 0.2 mm 0 m/s 752 mmHg 90%
    21:00 +16°C° 0 mm 0 m/s 752 mmHg 91%
    22:00 +15°C° 0 mm 0 m/s 753 mmHg 91%
    23:00 +14°C° 0 mm 0 m/s 753 mmHg 92%

    Mâine, 22 Iulie, Luni

    Timp Temperatura Precipitaţii Vânt Presiune Umiditate
    00:00 +14°C° 0 mm 0 m/s 753 mmHg 93%
    01:00 +14°C° 0 mm 0 m/s 752 mmHg 93%
    02:00 +13°C° 0 mm 0 m/s 752 mmHg 93%
    03:00 +13°C° 0 mm 0 m/s 752 mmHg 93%
    04:00 +13°C° 0 mm 0 m/s 752 mmHg 94%
    05:00 +14°C° 0 mm 0 m/s 752 mmHg 94%
    06:00 +15°C° 0 mm 0 m/s 752 mmHg 89%
    07:00 +19°C° 0 mm 1 m/s 752 mmHg 84%
    08:00 +21°C° 0 mm 1 m/s 752 mmHg 79%
    09:00 +23°C° 0 mm 1 m/s 752 mmHg 71%
    10:00 +24°C° 0 mm 1 m/s 751 mmHg 63%
    11:00 +24°C° 0 mm 0 m/s 751 mmHg 56%
    12:00 +24°C° 0 mm 0 m/s 751 mmHg 54%
    13:00 +24°C° 0 mm 0 m/s 751 mmHg 52%
    14:00 +24°C° 0 mm 0 m/s 751 mmHg 51%
    15:00 +24°C° 0 mm 0 m/s 751 mmHg 56%
    16:00 +25°C° 0 mm 1 m/s 751 mmHg 62%
    17:00 +24°C° 0 mm 1 m/s 751 mmHg 67%
    18:00 +23°C° 0.1 mm 1 m/s 750 mmHg 75%
    19:00 +21°C° 0.1 mm 1 m/s 750 mmHg 83%
    20:00 +19°C° 0.1 mm 1 m/s 750 mmHg 90%
    21:00 +19°C° 0 mm 1 m/s 750 mmHg 91%
    22:00 +18°C° 0 mm 1 m/s 750 mmHg 92%
    23:00 +16°C° 0 mm 1 m/s 750 mmHg 93%

    Poimâine, 23 Iulie, Marţi

    Timp Temperatura Precipitaţii Vânt Presiune Umiditate
    00:00 +16°C° 0 mm 1 m/s 750 mmHg 93%
    01:00 +16°C° 0 mm 1 m/s 750 mmHg 94%
    02:00 +15°C° 0 mm 1 m/s 750 mmHg 95%
    03:00 +15°C° 0 mm 1 m/s 750 mmHg 95%
    04:00 +15°C° 0 mm 1 m/s 750 mmHg 95%
    05:00 +15°C° 0 mm 1 m/s 750 mmHg 95%
    06:00 +18°C° 0 mm 1 m/s 750 mmHg 89%
    07:00 +20°C° 0 mm 1 m/s 750 mmHg 83%
    08:00 +20°C° 0 mm 2 m/s 750 mmHg 77%
    09:00 +21°C° 0.6 mm 2 m/s 750 mmHg 75%
    10:00 +23°C° 0.6 mm 2 m/s 750 mmHg 73%
    11:00 +24°C° 0.6 mm 3 m/s 750 mmHg 70%
    12:00 +25°C° 0.5 mm 2 m/s 750 mmHg 67%
    13:00 +25°C° 0.5 mm 2 m/s 750 mmHg 63%
    14:00 +26°C° 0.5 mm 2 m/s 750 mmHg 60%
    15:00 +25°C° 0.5 mm 2 m/s 751 mmHg 66%
    16:00 +24°C° 0.5 mm 2 m/s 751 mmHg 72%
    17:00 +24°C° 0.5 mm 1 m/s 751 mmHg 78%
    18:00 +22°C° 0.3 mm 1 m/s 751 mmHg 82%
    19:00 +21°C° 0.3 mm 1 m/s 751 mmHg 86%
    20:00 +19°C° 0.3 mm 1 m/s 751 mmHg 89%
    21:00 +18°C° 0 mm 1 m/s 751 mmHg 90%
    22:00 +18°C° 0 mm 1 m/s 751 mmHg 91%
    23:00 +16°C° 0 mm 1 m/s 752 mmHg 92%

    24 Iulie, Miercuri

    Timp Temperatura Precipitaţii Vânt Presiune Umiditate
    00:00 +15°C° 0 mm 1 m/s 752 mmHg 93%
    01:00 +15°C° 0 mm 1 m/s 752 mmHg 93%
    02:00 +14°C° 0 mm 1 m/s 752 mmHg 94%
    03:00 +14°C° 0 mm 1 m/s 752 mmHg 94%
    04:00 +14°C° 0 mm 1 m/s 752 mmHg 94%
    05:00 +14°C° 0 mm 1 m/s 752 mmHg 94%
    06:00 +16°C° 0 mm 1 m/s 752 mmHg 88%
    07:00 +19°C° 0 mm 1 m/s 752 mmHg 82%
    08:00 +21°C° 0 mm 1 m/s 752 mmHg 75%
    09:00 +22°C° 0 mm 1 m/s 752 mmHg 66%
    10:00 +24°C° 0 mm 2 m/s 753 mmHg 56%
    11:00 +26°C° 0 mm 2 m/s 753 mmHg 46%
    12:00 +26°C° 0 mm 2 m/s 753 mmHg 44%
    13:00 +27°C° 0 mm 2 m/s 753 mmHg 43%
    14:00 +27°C° 0 mm 2 m/s 753 mmHg 42%
    15:00 +27°C° 0 mm 2 m/s 753 mmHg 45%
    16:00 +26°C° 0 mm 2 m/s 753 mmHg 49%
    17:00 +26°C° 0 mm 2 m/s 753 mmHg 52%
    18:00 +24°C° 0 mm 1 m/s 753 mmHg 60%
    19:00 +22°C° 0 mm 1 m/s 753 mmHg 67%
    20:00 +18°C° 0 mm 0 m/s 753 mmHg 75%
    21:00 +17°C° 0 mm 0 m/s 753 mmHg 77%
    22:00 +16°C° 0 mm 0 m/s 753 mmHg 80%
    23:00 +15°C° 0 mm 0 m/s 754 mmHg 82%

    25 Iulie, Joi

    Timp Temperatura Precipitaţii Vânt Presiune Umiditate
    00:00 +15°C° 0 mm 0 m/s 754 mmHg 84%
    01:00 +14°C° 0 mm 0 m/s 754 mmHg 87%
    02:00 +14°C° 0 mm 0 m/s 754 mmHg 89%
    03:00 +14°C° 0 mm 0 m/s 754 mmHg 89%
    04:00 +14°C° 0 mm 0 m/s 754 mmHg 89%
    05:00 +15°C° 0 mm 0 m/s 754 mmHg 90%
    06:00 +16°C° 0 mm 0 m/s 754 mmHg 83%
    07:00 +20°C° 0 mm 1 m/s 755 mmHg 76%
    08:00 +22°C° 0 mm 1 m/s 755 mmHg 69%
    09:00 +24°C° 0 mm 1 m/s 755 mmHg 63%
    10:00 +25°C° 0 mm 1 m/s 755 mmHg 57%
    11:00 +27°C° 0 mm 1 m/s 755 mmHg 51%
    12:00 +27°C° 0 mm 1 m/s 755 mmHg 51%
    13:00 +27°C° 0 mm 1 m/s 754 mmHg 51%
    14:00 +27°C° 0 mm 2 m/s 754 mmHg 51%
    15:00 +27°C° 0 mm 2 m/s 754 mmHg 52%
    16:00 +27°C° 0 mm 2 m/s 754 mmHg 54%
    17:00 +27°C° 0 mm 2 m/s 754 mmHg 56%
    18:00 +25°C° 0 mm 2 m/s 754 mmHg 64%
    19:00 +23°C° 0 mm 2 m/s 754 mmHg 72%
    20:00 +21°C° 0 mm 1 m/s 754 mmHg 81%
    21:00 +20°C° 0 mm 1 m/s 755 mmHg 86%
    22:00 +19°C° 0 mm 1 m/s 755 mmHg 91%
    23:00 +18°C° 0 mm 1 m/s 755 mmHg 96%

    26 Iulie, Vineri

    Timp Temperatura Precipitaţii Vânt Presiune Umiditate
    00:00 +18°C° 0 mm 1 m/s 755 mmHg 96%
    01:00 +18°C° 0 mm 1 m/s 755 mmHg 97%
    02:00 +16°C° 0 mm 1 m/s 755 mmHg 98%
    03:00 +16°C° 0 mm 2 m/s 755 mmHg 95%
    04:00 +15°C° 0 mm 2 m/s 755 mmHg 93%
    05:00 +15°C° 0 mm 2 m/s 755 mmHg 91%
    06:00 +16°C° 0 mm 2 m/s 755 mmHg 82%
    07:00 +18°C° 0 mm 2 m/s 755 mmHg 73%
    08:00 +19°C° 0 mm 2 m/s 755 mmHg 64%
    09:00 +21°C° 0 mm 3 m/s 755 mmHg 59%
    10:00 +22°C° 0 mm 3 m/s 755 mmHg 54%
    11:00 +25°C° 0 mm 3 m/s 755 mmHg 48%
    12:00 +25°C° 0 mm 3 m/s 755 mmHg 48%
    13:00 +25°C° 0 mm 3 m/s 755 mmHg 48%
    14:00 +26°C° 0 mm 3 m/s 754 mmHg 48%
    15:00 +25°C° 0 mm 3 m/s 754 mmHg 51%
    16:00 +25°C° 0 mm 3 m/s 754 mmHg 53%
    17:00 +24°C° 0 mm 3 m/s 754 mmHg 56%
    18:00 +21°C° 0 mm 3 m/s 754 mmHg 63%
    19:00 +19°C° 0 mm 2 m/s 754 mmHg 70%
    20:00 +17°C° 0 mm 2 m/s 754 mmHg 77%
    21:00 +17°C° 0 mm 2 m/s 754 mmHg 78%
    22:00 +16°C° 0 mm 1 m/s 754 mmHg 80%
    23:00 +15°C° 0 mm 1 m/s 754 mmHg 81%
    Arată mai mult